| time (UTC) | temp F | wind direction | speed MPH | gust MPH | rain 1hr in | rain 24hr in | rain mn in | humidity % | barometer mb |
| 20260901183001 | 82 | 47 | 6.0 | 0.0 | 0.00 | 0.00 | 0.01 | 41 | 999.8 |
| 20260901181601 | 79 | 112 | 6.0 | 0.0 | 0.00 | 0.00 | 0.01 | 45 | 1000.5 |
| 20260901180056 | 78 | 124 | 6.0 | 0.0 | 0.00 | 0.00 | 0.01 | 45 | 1000.9 |
| 20260901174552 | 77 | 121 | 7.0 | 0.0 | 0.00 | 0.00 | 0.01 | 47 | 1001.7 |
| 20260901173059 | 76 | 117 | 6.0 | 0.0 | 0.00 | 0.00 | 0.01 | 50 | 1001.5 |
| 20260901171558 | 76 | 115 | 6.0 | 0.0 | 0.00 | 0.00 | 0.01 | 52 | 1001.9 |
| 20260901170047 | 74 | 79 | 6.0 | 0.0 | 0.00 | 0.00 | 0.01 | 54 | 1002.6 |
| 20260901164551 | 72 | 105 | 6.0 | 0.0 | 0.00 | 0.00 | 0.01 | 61 | 1002.8 |
| 20260901163040 | 72 | 83 | 4.0 | 0.0 | 0.00 | 0.00 | 0.01 | 63 | 1002.9 |
| 20260901161543 | 71 | 92 | 2.0 | 0.0 | 0.00 | 0.00 | 0.01 | 68 | 1003.1 |
| 20260901160034 | 69 | 48 | 1.0 | 0.0 | 0.00 | 0.00 | 0.01 | 76 | 1003.4 |
| 20260901154530 | 66 | 102 | 2.0 | 0.0 | 0.00 | 0.00 | 0.01 | 81 | 1003.8 |
| 20260901153027 | 65 | 146 | 0.0 | 0.0 | 0.00 | 0.00 | 0.01 | 77 | 1004.0 |
| 20260901151531 | 64 | 168 | 0.0 | 0.0 | 0.00 | 0.00 | 0.01 | 80 | 1004.3 |
| 20260901150024 | 63 | 156 | 0.0 | 0.0 | 0.00 | 0.00 | 0.01 | 84 | 1004.1 |
| 20260901144520 | 62 | 156 | 0.0 | 0.0 | 0.00 | 0.00 | 0.01 | 86 | 1004.7 |
| 20260901143017 | 62 | 156 | 0.0 | 0.0 | 0.00 | 0.00 | 0.01 | 86 | 1004.6 |
| 20260901141517 | 61 | 156 | 0.0 | 0.0 | 0.00 | 0.00 | 0.01 | 85 | 1004.5 |
| 20260901140015 | 61 | 156 | 0.0 | 0.0 | 0.00 | 0.00 | 0.01 | 86 | 1003.8 |
| 20260901134514 | 60 | 156 | 0.0 | 0.0 | 0.00 | 0.00 | 0.01 | 87 | 1003.5 |
| 20260901133019 | 60 | 147 | 0.0 | 0.0 | 0.00 | 0.00 | 0.01 | 88 | 1003.5 |
| 20260901131513 | 60 | 133 | 2.0 | 0.0 | 0.00 | 0.00 | 0.01 | 87 | 1003.3 |
| 20260901130013 | 60 | 178 | 1.0 | 0.0 | 0.00 | 0.00 | 0.01 | 86 | 1002.0 |
| 20260901124513 | 59 | 224 | 0.0 | 0.0 | 0.00 | 0.00 | 0.01 | 87 | 1001.7 |
| 20260901123014 | 60 | 138 | 1.0 | 0.0 | 0.00 | 0.00 | 0.01 | 88 | 1001.3 |
| 20260901121509 | 59 | 178 | 1.0 | 0.0 | 0.00 | 0.00 | 0.01 | 90 | 1001.0 |
| 20260901120009 | 59 | 154 | 1.0 | 0.0 | 0.00 | 0.00 | 0.01 | 92 | 1000.1 |
| 20260901114507 | 59 | 99 | 1.0 | 0.0 | 0.00 | 0.00 | 0.01 | 92 | 1000.1 |
| 20260901113008 | 59 | 73 | 0.0 | 0.0 | 0.00 | 0.00 | 0.01 | 92 | 1000.1 |
| 20260901111506 | 59 | 73 | 0.0 | 0.0 | 0.00 | 0.00 | 0.01 | 91 | 1000.1 |
| 20260901110005 | 60 | 347 | 0.0 | 0.0 | 0.00 | 0.00 | 0.01 | 91 | 999.8 |
| 20260901104504 | 60 | 356 | 1.0 | 0.0 | 0.00 | 0.00 | 0.01 | 89 | 999.9 |
| 20260901103003 | 60 | 138 | 1.0 | 0.0 | 0.00 | 0.00 | 0.01 | 90 | 999.9 |
| 20260901101506 | 60 | 165 | 0.0 | 0.0 | 0.00 | 0.00 | 0.01 | 91 | 1000.4 |
| 20260901100002 | 60 | 144 | 1.0 | 0.0 | 0.00 | 0.00 | 0.01 | 92 | 1000.5 |
| 20260901094601 | 60 | 140 | 2.0 | 0.0 | 0.00 | 0.00 | 0.01 | 92 | 1000.8 |
| 20260901093109 | 60 | 157 | 1.0 | 0.0 | 0.00 | 0.00 | 0.01 | 92 | 1001.1 |
| 20260901091612 | 60 | 154 | 1.0 | 0.0 | 0.00 | 0.00 | 0.01 | 93 | 1001.2 |
| 20260901090058 | 60 | 152 | 0.0 | 0.0 | 0.00 | 0.00 | 0.01 | 92 | 1001.5 |
| 20260901084557 | 60 | 152 | 0.0 | 0.0 | 0.00 | 0.00 | 0.01 | 92 | 1001.6 |
| 20260901083100 | 61 | 240 | 0.0 | 0.0 | 0.00 | 0.00 | 0.01 | 91 | 1001.6 |
| 20260901081554 | 61 | 200 | 0.0 | 0.0 | 0.00 | 0.00 | 0.01 | 91 | 1001.6 |
| 20260901080057 | 61 | 206 | 0.0 | 0.0 | 0.00 | 0.00 | 0.01 | 91 | 1001.8 |
| 20260901074553 | 61 | 251 | 1.0 | 0.0 | 0.00 | 0.00 | 0.01 | 92 | 1002.2 |
| 20260901073053 | 61 | 207 | 0.0 | 0.0 | 0.00 | 0.00 | 0.01 | 92 | 1002.2 |
| 20260901071550 | 61 | 247 | 0.0 | 0.0 | 0.00 | 0.00 | 0.01 | 92 | 1002.2 |
| 20260901070056 | 61 | 79 | 0.0 | 0.0 | 0.00 | 0.00 | 0.01 | 92 | 1002.2 |
| 20260901064549 | 61 | 155 | 0.0 | 0.0 | 0.00 | 0.00 | 0.01 | 92 | 1002.6 |
| 20260901063049 | 62 | 142 | 1.0 | 0.0 | 0.00 | 0.00 | 0.01 | 90 | 1002.2 |
| 20260901061546 | 62 | 129 | 3.0 | 0.0 | 0.00 | 0.00 | 0.01 | 88 | 1002.2 |
| 20260901060045 | 62 | 178 | 0.0 | 0.0 | 0.00 | 0.00 | 0.00 | 87 | 1002.9 |
| 20260901054544 | 62 | 189 | 0.0 | 0.0 | 0.00 | 0.00 | 0.14 | 88 | 1002.5 |
| 20260901053047 | 61 | 235 | 1.0 | 0.0 | 0.00 | 0.00 | 0.14 | 90 | 1002.3 |
| 20260901051546 | 61 | 219 | 1.0 | 0.0 | 0.00 | 0.00 | 0.14 | 91 | 1002.4 |
| 20260901050043 | 62 | 222 | 2.0 | 0.0 | 0.00 | 0.00 | 0.14 | 92 | 1002.7 |
| 20260901044554 | 61 | 268 | 2.0 | 0.0 | 0.00 | 0.00 | 0.14 | 92 | 1002.6 |
| 20260901043042 | 61 | 251 | 1.0 | 0.0 | 0.00 | 0.00 | 0.14 | 92 | 1002.9 |
| 20260901041541 | 61 | 204 | 0.0 | 0.0 | 0.00 | 0.00 | 0.14 | 91 | 1003.0 |
| 20260901040041 | 62 | 247 | 2.0 | 0.0 | 0.00 | 0.00 | 0.14 | 91 | 1002.6 |
| 20260901034538 | 62 | 190 | 1.0 | 0.0 | 0.00 | 0.00 | 0.14 | 91 | 1002.6 |
| 20260901033041 | 62 | 181 | 1.0 | 0.0 | 0.00 | 0.00 | 0.14 | 91 | 1002.5 |
| 20260901031542 | 62 | 317 | 0.0 | 0.0 | 0.00 | 0.00 | 0.14 | 91 | 1002.7 |
| 20260901030048 | 62 | 289 | 1.0 | 0.0 | 0.00 | 0.00 | 0.14 | 89 | 1004.3 |
| 20260901024538 | 62 | 253 | 2.0 | 0.0 | 0.00 | 0.00 | 0.13 | 87 | 1005.0 |
| 20260901023036 | 63 | 246 | 5.0 | 0.0 | 0.00 | 0.00 | 0.11 | 85 | 1004.4 |
| 20260901021533 | 64 | 291 | 2.0 | 0.0 | 0.00 | 0.00 | 0.06 | 80 | 1003.5 |
| 20260901020033 | 67 | 174 | 7.0 | 0.0 | 0.00 | 0.00 | 0.03 | 73 | 1003.2 |
| 20260901014534 | 70 | 196 | 5.0 | 0.0 | 0.00 | 0.00 | 0.00 | 61 | 1001.5 |
| 20260901013031 | 70 | 293 | 3.0 | 0.0 | 0.00 | 0.00 | 0.00 | 61 | 1000.7 |
| 20260901011530 | 70 | 327 | 6.0 | 0.0 | 0.00 | 0.00 | 0.00 | 62 | 1000.7 |
| 20260901010031 | 74 | 275 | 9.0 | 0.0 | 0.00 | 0.00 | 0.00 | 52 | 1000.4 |
| 20260901004536 | 80 | 5 | 1.0 | 0.0 | 0.00 | 0.00 | 0.00 | 39 | 999.5 |
| 20260901003034 | 81 | 39 | 2.0 | 0.0 | 0.00 | 0.00 | 0.00 | 37 | 999.6 |
| 20260901001529 | 81 | 59 | 1.0 | 0.0 | 0.00 | 0.00 | 0.00 | 37 | 999.1 |
| 20260901000028 | 82 | 116 | 1.0 | 0.0 | 0.00 | 0.00 | 0.00 | 37 | 999.1 |
| 20260831234527 | 82 | 50 | 2.0 | 0.0 | 0.00 | 0.00 | 0.00 | 37 | 999.1 |
| 20260831233028 | 83 | 90 | 4.0 | 0.0 | 0.00 | 0.00 | 0.00 | 36 | 999.2 |
| 20260831231526 | 84 | 51 | 4.0 | 0.0 | 0.00 | 0.00 | 0.00 | 36 | 998.8 |
| 20260831230025 | 84 | 48 | 2.0 | 0.0 | 0.00 | 0.00 | 0.00 | 35 | 999.1 |
| 20260831224524 | 82 | 115 | 3.0 | 0.0 | 0.00 | 0.00 | 0.00 | 37 | 999.6 |
| 20260831223024 | 83 | 43 | 3.0 | 0.0 | 0.00 | 0.00 | 0.00 | 36 | 1000.0 |
| 20260831221533 | 83 | 90 | 3.0 | 0.0 | 0.00 | 0.00 | 0.00 | 36 | 999.7 |
| 20260831220023 | 84 | 74 | 2.0 | 0.0 | 0.00 | 0.00 | 0.00 | 36 | 999.8 |
| 20260831214539 | 84 | 59 | 2.0 | 0.0 | 0.00 | 0.00 | 0.00 | 35 | 999.7 |
| 20260831213019 | 83 | 35 | 1.0 | 0.0 | 0.00 | 0.00 | 0.00 | 36 | 1000.1 |
| 20260831211521 | 82 | 117 | 2.0 | 0.0 | 0.00 | 0.00 | 0.00 | 37 | 1000.4 |
| 20260831210017 | 82 | 306 | 1.0 | 0.0 | 0.00 | 0.00 | 0.00 | 39 | 1000.9 |
| 20260831204517 | 82 | 81 | 3.0 | 0.0 | 0.00 | 0.00 | 0.00 | 38 | 1000.9 |
| 20260831203018 | 82 | 55 | 3.0 | 0.0 | 0.00 | 0.00 | 0.00 | 37 | 1001.3 |
| 20260831201521 | 81 | 31 | 2.0 | 0.0 | 0.00 | 0.00 | 0.00 | 39 | 1001.5 |
| 20260831200021 | 81 | 54 | 1.0 | 0.0 | 0.00 | 0.00 | 0.00 | 39 | 1001.4 |
| 20260831194511 | 81 | 48 | 2.0 | 0.0 | 0.00 | 0.00 | 0.00 | 38 | 1001.6 |
| 20260831193008 | 80 | 17 | 2.0 | 0.0 | 0.00 | 0.00 | 0.00 | 38 | 1001.7 |
| 20260831191508 | 80 | 56 | 1.0 | 0.0 | 0.00 | 0.00 | 0.00 | 38 | 1001.9 |
| 20260831190009 | 80 | 34 | 1.0 | 0.0 | 0.00 | 0.00 | 0.00 | 39 | 1002.7 |
| 20260831184511 | 80 | 43 | 1.0 | 0.0 | 0.00 | 0.00 | 0.00 | 39 | 1002.7 |